ANGOSAT 2

导读 | 豆包AI

ANGOSAT 2(安哥拉卫星2号)是安哥拉的通信卫星,于2022年10月12日发射,旨在替代此前发射后失联的ANGOSAT 1。卫星由俄罗斯研制,定位于地球静止轨道,配备C波段和Ku波段转发器,质量1964kg,设计寿命15年,主要用于支持安哥拉地面通信网络建设,推动电视广播等信息基础设施发展,助力安哥拉航天与通信领域自主化建设。

基本信息
目录编号:
54033
目录名称:
ANGOSAT 2
国际标识:
2022-131A
轨道中心:
EARTH
卫星名称:
ANGOSAT 2
卫星全名:
--
卫星状态:
在轨 (已飞行1297 天)
发射日期:
2022-10-12 UTC
国别 :
(AO)
星等 :
--
轨道信息
数据来源 国际轨道数据 AOE轨道数据
星历时间 2026-05-01T00:55:42+0800
13小时前
查看轨道信息
2026-05-01T05:00:00+0800
9小时前
查看轨道信息
半长轴 42164.392km 42164.364km
偏心率 0.0001133 0.0001096
轨道倾角 0.007° 0.018°
近地点辐角 246.578° 309.282°
升交点赤经 222.777° 160.782°
平近点角 26.219° 86.752°
近地点 35781.477km 35781.605km
远地点 35791.033km 35790.849km
周期 1436.080分钟 1436.078分钟
每日圈数 1.00273 1.002731
详细信息
使用方式:
暂无
2D轨道图
3D轨道图
轨道高度分析图
轨道倾角分析图
轨道综合分析图
查看轨道综合分析图